TimePDT,TemperatureF,Dew PointF,Humidity,Sea Level PressureIn,VisibilityMPH,Wind Direction,Wind SpeedMPH,Gust SpeedMPH,PrecipitationIn,Events,Conditions,WindDirDegrees,DateUTC
12:15 AM,44.6,39.2,81,30.18,10.0,Calm,Calm,-,N/A,,Clear,0,2013-04-29 07:15:00
12:35 AM,44.6,39.2,81,30.18,10.0,Calm,Calm,-,N/A,,Clear,0,2013-04-29 07:35:00
12:55 AM,39.2,37.4,93,30.18,10.0,Calm,Calm,-,N/A,,Clear,0,2013-04-29 07:55:00
1:15 AM,41.0,37.4,87,30.18,10.0,Calm,Calm,-,N/A,,Clear,0,2013-04-29 08:15:00
1:35 AM,37.4,35.6,93,30.18,10.0,South,3.5,-,N/A,,Clear,190,2013-04-29 08:35:00
1:55 AM,39.2,37.4,93,30.18,10.0,SSE,3.5,-,N/A,,Clear,160,2013-04-29 08:55:00
2:15 AM,37.4,35.6,93,30.16,10.0,SSW,3.5,-,N/A,,Clear,210,2013-04-29 09:15:00
2:35 AM,39.2,39.2,100,30.15,10.0,Calm,Calm,-,N/A,,Clear,0,2013-04-29 09:35:00
2:55 AM,39.2,37.4,93,30.16,10.0,North,5.8,-,N/A,,Clear,360,2013-04-29 09:55:00
3:15 AM,35.6,32.0,87,30.16,10.0,South,3.5,-,N/A,,Clear,170,2013-04-29 10:15:00
3:35 AM,35.6,33.8,93,30.16,10.0,SW,3.5,-,N/A,,Clear,220,2013-04-29 10:35:00
3:55 AM,37.4,35.6,93,30.16,10.0,Calm,Calm,-,N/A,,Clear,0,2013-04-29 10:55:00
4:15 AM,39.2,37.4,93,30.16,10.0,Calm,Calm,-,N/A,,Clear,0,2013-04-29 11:15:00
4:35 AM,35.6,33.8,93,30.16,0.2,Calm,Calm,-,N/A,Fog,Fog,0,2013-04-29 11:35:00
4:55 AM,35.6,35.6,100,30.15,0.8,SSW,3.5,-,N/A,,Mist,200,2013-04-29 11:55:00
5:15 AM,33.8,32.0,93,30.14,0.2,Calm,Calm,-,N/A,Fog,Fog,0,2013-04-29 12:15:00
5:35 AM,35.6,35.6,100,30.14,10.0,Calm,Calm,-,N/A,,Clear,0,2013-04-29 12:35:00
5:55 AM,32.0,32.0,100,30.14,0.5,ENE,3.5,-,N/A,Fog,Fog,70,2013-04-29 12:55:00
6:15 AM,32.0,30.2,93,30.15,0.2,SSE,4.6,-,N/A,Fog,Light Freezing Fog,160,2013-04-29 13:15:00
6:35 AM,32.0,32.0,100,30.15,0.2,Calm,Calm,-,N/A,Fog,Light Freezing Fog,0,2013-04-29 13:35:00
6:50 AM,35.6,35.6,100,30.15,10.0,Calm,Calm,-,N/A,,Scattered Clouds,0,2013-04-29 13:50:00
7:50 AM,41.0,37.4,87,30.15,10.0,Calm,Calm,-,N/A,,Scattered Clouds,0,2013-04-29 14:50:00
8:45 AM,46.4,39.2,76,30.16,10.0,Calm,Calm,-,N/A,,Mostly Cloudy,0,2013-04-29 15:45:00
9:55 AM,55.4,37.4,51,30.13,10.0,WNW,3.5,-,N/A,,Mostly Cloudy,290,2013-04-29 16:55:00
10:45 AM,60.8,39.2,45,30.11,10.0,Calm,Calm,-,N/A,,Mostly Cloudy,0,2013-04-29 17:45:00
11:45 AM,64.4,37.4,37,30.09,10.0,WSW,4.6,-,N/A,,Mostly Cloudy,240,2013-04-29 18:45:00
12:50 PM,71.6,32.0,23,30.06,10.0,WSW,8.1,18.4,N/A,,Mostly Cloudy,240,2013-04-29 19:50:00
1:50 PM,71.6,32.0,23,30.05,10.0,WSW,16.1,25.3,N/A,,Mostly Cloudy,250,2013-04-29 20:50:00
2:45 PM,71.6,32.0,23,30.04,10.0,WSW,15.0,23.0,N/A,,Mostly Cloudy,250,2013-04-29 21:45:00
3:45 PM,71.6,32.0,23,30.03,10.0,WSW,15.0,23.0,N/A,,Mostly Cloudy,240,2013-04-29 22:45:00
4:45 PM,68.0,32.0,26,30.01,10.0,SW,13.8,-,N/A,,Mostly Cloudy,220,2013-04-29 23:45:00
5:45 PM,64.4,32.0,30,30.01,10.0,WSW,16.1,24.2,N/A,,Mostly Cloudy,250,2013-04-30 00:45:00
5:55 PM,64.4,32.0,30,30.01,10.0,West,12.7,25.3,N/A,,Clear,260,2013-04-30 00:55:00
6:15 PM,64.4,32.0,30,30.01,10.0,WSW,13.8,20.7,N/A,,Clear,250,2013-04-30 01:15:00
6:35 PM,64.4,32.0,30,30.01,10.0,WSW,9.2,-,N/A,,Clear,250,2013-04-30 01:35:00
6:55 PM,62.6,32.0,32,30.01,10.0,SW,9.2,-,N/A,,Clear,230,2013-04-30 01:55:00
7:15 PM,62.6,32.0,32,30.01,10.0,WSW,9.2,17.3,N/A,,Clear,240,2013-04-30 02:15:00
7:35 PM,59.0,32.0,36,30.01,10.0,WSW,5.8,-,N/A,,Clear,250,2013-04-30 02:35:00
7:55 PM,57.2,32.0,38,30.01,10.0,SW,6.9,-,N/A,,Clear,230,2013-04-30 02:55:00
8:15 PM,55.4,32.0,41,30.01,10.0,WSW,4.6,-,N/A,,Clear,240,2013-04-30 03:15:00
8:35 PM,55.4,32.0,41,30.01,4.0,WSW,4.6,-,N/A,,Haze,240,2013-04-30 03:35:00
8:55 PM,55.4,33.8,44,30.01,10.0,SW,3.5,-,N/A,,Clear,220,2013-04-30 03:55:00
9:15 PM,53.6,32.0,44,30.01,10.0,SSE,4.6,-,N/A,,Clear,150,2013-04-30 04:15:00
9:35 PM,50.0,32.0,50,30.01,10.0,South,4.6,-,N/A,,Clear,170,2013-04-30 04:35:00
9:55 PM,48.2,32.0,54,30.01,10.0,South,5.8,-,N/A,,Clear,170,2013-04-30 04:55:00
10:15 PM,46.4,33.8,62,30.01,10.0,SW,3.5,-,N/A,,Clear,220,2013-04-30 05:15:00
10:35 PM,48.2,35.6,62,30.01,10.0,SSE,4.6,-,N/A,,Clear,150,2013-04-30 05:35:00
10:55 PM,42.8,32.0,66,30.01,10.0,South,4.6,-,N/A,,Clear,170,2013-04-30 05:55:00
11:15 PM,44.6,35.6,71,30.00,10.0,Calm,Calm,-,N/A,,Clear,0,2013-04-30 06:15:00
11:35 PM,46.4,35.6,66,30.00,10.0,SE,3.5,-,N/A,,Clear,140,2013-04-30 06:35:00
11:55 PM,41.0,35.6,81,30.00,10.0,Calm,Calm,-,N/A,,Clear,0,2013-04-30 06:55:00